Wind_Speed
9 8 8 7 6 6 5 5 5 4 4 3 4 4 3 4 4 4 5 6 6 7 7 7 6 6 6 6 7 8 8 8 7 5 4 2 2 1 2 4 5 5 5 3 3 3 4 4 3 3 2 1 2 2 2 3 3 1 2 3 3 3 3 3 3 3 3 3 3 4 4 4 4 5 5 6 6 6 7 8 9 9 9 9 8
9 8 8 7 5 5 6 6 5 5 5 4 5 5 4 5 5 6 7 7 6 7 7 8 8 6 5 6 6 8 8 7 6 5 4 2 2 1 2 4 4 4 4 3 3 3 2 4 4 3 2 1 2 2 2 2 2 2 2 3 4 4 3 3 3 3 3 3 2 3 3 3 3 4 4 5 5 6 6 7 8 7 8 10 9
8 7 7 5 4 5 7 7 6 6 6 6 6 6 6 6 7 8 9 8 7 7 7 8 9 7 5 6 6 6 6 7 7 6 5 3 2 2 1 2 3 3 3 2 3 3 2 2 4 3 2 2 3 3 2 2 2 2 3 3 3 4 4 4 3 3 3 3 3 1 1 2 2 2 3 4 4 5 5 6 6 6 8 9 8
9 8 6 4 5 7 7 7 6 6 6 6 6 5 6 6 7 9 8 8 7 6 6 6 7 7 5 6 6 5 5 7 8 7 5 4 3 2 1 1 2 2 2 1 2 3 2 2 3 3 2 2 3 3 3 3 3 2 4 5 5 5 6 6 5 4 3 3 3 2 2 2 1 1 2 3 3 4 4 5 5 6 7 7 7
11 11 7 6 9 10 7 7 6 6 6 5 4 4 4 4 5 6 6 7 6 6 5 5 6 6 5 5 5 5 5 7 8 8 6 4 3 3 2 2 2 2 2 1 1 3 3 1 2 2 1 1 3 3 3 3 3 2 4 7 7 6 6 7 6 5 4 3 3 3 3 3 1 1 1 1 2 3 3 4 5 5 6 6 7
13 10 7 9 12 10 8 9 8 6 6 5 4 5 5 4 4 4 4 5 5 6 6 5 6 6 6 5 5 6 7 8 9 8 6 4 3 3 3 3 3 2 2 2 1 2 3 2 1 1 0 1 1 2 3 3 3 3 3 6 7 6 5 6 6 5 5 5 4 4 4 4 2 2 1 1 1 2 2 3 3 4 5 5 6
13 8 6 10 10 7 7 10 9 6 5 4 4 6 6 6 6 5 5 4 4 5 5 5 6 6 6 6 5 6 8 9 9 8 7 6 5 4 4 4 3 3 2 1 1 2 2 3 2 2 1 1 0 1 2 3 4 4 3 5 6 6 5 5 5 5 5 6 5 5 6 5 4 4 3 2 1 1 1 2 2 3 4 4 5
9 5 6 9 7 6 6 7 8 6 4 3 4 6 6 7 7 6 5 5 4 4 3 3 5 6 7 7 7 7 9 9 9 8 9 8 7 6 5 5 5 4 3 2 2 3 3 3 3 4 4 4 3 2 2 3 4 5 4 4 5 4 4 6 6 6 5 5 5 6 7 7 7 7 6 4 3 2 2 2 2 3 3 4 5
4 3 6 6 4 5 5 6 6 4 3 3 4 4 5 6 7 7 6 5 5 5 4 3 5 7 8 8 8 8 8 7 8 9 8 7 7 7 6 5 4 4 4 4 4 4 5 5 5 5 5 6 6 5 4 4 4 5 5 5 5 5 4 5 5 5 6 6 5 5 6 7 8 8 8 7 5 4 3 3 3 3 3 3 4
1 2 5 5 4 4 5 6 5 4 4 3 4 5 5 5 6 7 6 6 7 7 6 6 6 8 8 9 8 7 6 5 6 6 4 3 5 5 4 4 4 4 5 6 6 6 6 7 7 7 7 7 7 8 7 6 6 6 6 6 6 7 6 6 5 3 5 7 7 7 6 7 7 8 8 8 7 6 5 4 4 3 3 3 4
1 1 4 5 5 4 5 6 6 5 5 5 6 6 5 5 6 7 7 7 7 7 7 8 8 7 6 8 8 7 5 4 5 6 5 5 5 5 2 2 4 7 7 7 7 7 7 6 6 6 7 8 8 9 10 9 8 7 7 7 7 8 8 8 7 5 3 4 6 8 8 7 7 7 7 7 7 7 6 6 5 5 4 4 4
2 0 3 3 4 4 5 5 6 5 4 5 6 5 5 6 6 6 7 7 7 7 8 9 8 6 3 4 6 6 4 4 5 6 6 5 5 5 2 1 2 5 7 6 6 8 8 7 6 5 5 6 8 9 10 11 11 10 10 10 9 9 9 9 9 9 7 5 5 7 8 8 7 7 7 7 7 7 7 7 6 5 5 5 5
3 2 3 2 1 3 4 5 6 5 5 5 4 4 4 6 6 6 6 8 8 8 10 11 9 7 4 3 3 3 2 2 2 3 2 1 1 2 2 0 1 3 4 5 6 6 6 6 6 6 6 5 7 8 8 8 10 11 11 11 11 10 9 9 9 10 10 9 7 7 8 9 8 7 7 8 8 8 8 7 7 6 6 5 6
5 4 4 3 1 2 3 4 5 6 6 4 3 3 5 6 6 6 6 8 9 11 15 13 8 6 6 5 4 2 2 3 2 1 1 2 4 4 3 3 3 2 2 3 4 4 4 5 5 6 6 6 7 7 6 5 7 10 10 10 10 10 9 9 9 10 11 11 11 9 9 11 11 9 8 8 9 9 9 8 7 6 6 6 6
7 6 4 3 2 2 2 3 4 5 5 3 2 3 4 5 6 7 8 9 9 13 18 14 9 8 6 4 3 1 1 2 3 3 3 4 5 6 6 5 5 4 4 4 4 5 4 5 6 5 5 6 7 8 7 6 7 9 9 8 9 9 7 7 8 9 10 11 11 11 11 12 13 12 10 9 9 10 10 9 8 7 7 7 7
7 6 5 3 1 1 1 2 3 4 3 2 2 2 3 3 5 6 9 11 10 11 14 12 12 10 5 3 2 2 1 2 3 4 4 4 6 6 6 5 4 4 5 5 5 6 6 6 7 6 5 5 7 8 9 8 8 8 8 9 10 9 8 6 6 7 8 9 11 12 13 14 15 13 12 11 10 10 10 10 10 9 8 8 8
6 6 5 3 2 1 1 1 2 2 2 2 2 2 2 3 4 6 8 10 10 10 9 10 13 12 6 3 3 2 2 4 4 4 5 5 5 6 6 5 4 5 5 6 6 5 6 6 6 6 6 6 7 8 8 8 8 8 8 8 9 10 10 7 6 5 6 7 9 11 13 15 16 15 13 12 12 12 12 12 12 11 11 10 10
6 5 5 4 3 2 1 1 1 1 1 2 2 2 2 2 3 4 6 8 9 9 8 10 12 11 8 5 3 3 4 6 5 4 6 7 7 8 8 8 8 9 9 9 8 6 7 7 6 5 5 7 7 8 8 7 7 7 5 6 8 9 9 7 7 6 6 7 9 10 13 16 17 15 13 13 14 14 14 13 14 14 13 13 12
6 5 4 5 4 3 3 2 2 1 1 2 2 2 2 3 2 4 6 7 8 8 8 9 9 7 6 5 4 5 7 6 4 5 6 7 9 11 12 13 15 15 14 14 12 11 11 11 10 8 8 8 8 8 8 8 7 5 4 6 8 9 9 8 8 8 8 9 10 11 12 14 16 14 13 14 15 16 16 15 16 16 15 14 14
6 4 4 5 5 4 3 2 3 3 3 3 4 4 3 3 3 3 5 6 7 7 7 9 8 7 6 5 6 6 7 6 5 5 6 6 7 10 14 18 20 19 18 18 18 17 17 17 16 14 14 13 13 13 13 13 11 9 7 7 7 7 8 8 7 8 7 8 9 10 10 11 13 14 15 16 16 17 17 17 17 18 17 16 16
5 4 4 5 5 5 4 2 3 4 5 5 5 6 4 3 3 4 5 5 6 6 6 8 8 9 9 8 8 8 6 5 5 5 6 7 6 8 11 16 19 18 17 18 19 20 20 19 18 17 17 17 16 16 15 15 14 12 10 10 8 7 7 7 6 5 4 3 5 5 5 6 8 10 14 16 15 16 17 18 18 18 18 18 18
5 4 4 4 4 4 4 2 3 5 7 8 7 6 4 4 4 5 6 5 5 5 6 8 8 9 10 9 8 8 6 6 6 6 6 6 6 8 9 11 13 13 14 15 16 17 18 19 18 18 18 18 18 17 16 15 15 13 11 10 10 9 9 9 7 5 4 2 2 2 2 2 1 4 8 12 12 12 14 15 16 17 18 19 19
5 5 4 4 3 3 3 3 5 6 8 9 8 7 7 7 7 7 7 7 7 7 8 8 8 8 9 8 7 7 7 7 7 8 7 7 7 8 9 10 12 11 12 14 14 14 15 16 17 17 17 18 17 17 17 16 15 14 12 11 10 9 8 9 8 7 7 6 5 5 4 5 4 2 2 5 8 10 12 12 13 16 18 18 19
6 6 5 4 3 2 2 3 5 6 7 7 7 7 8 10 10 10 10 10 11 11 11 11 10 11 10 9 9 8 7 8 8 7 7 9 9 8 9 10 10 10 9 11 13 14 15 15 15 16 16 16 16 16 16 16 15 14 13 12 12 11 10 9 8 7 7 7 8 7 6 5 4 3 2 1 3 7 9 8 11 15 17 18 19
7 6 5 4 3 2 2 3 4 5 5 6 6 7 9 10 12 12 13 14 14 15 15 15 15 14 14 13 13 11 10 9 8 8 8 9 9 9 9 8 8 9 7 6 8 11 13 14 13 14 15 15 15 15 15 15 14 13 13 12 12 12 12 12 11 9 7 7 8 8 8 6 5 3 2 2 1 3 5 5 7 9 11 13 15
8 7 5 4 3 3 3 4 4 4 4 4 5 7 9 9 10 12 13 14 15 15 16 16 15 14 14 13 12 11 11 10 9 9 9 9 10 11 10 8 8 9 7 6 6 7 10 12 12 13 14 15 14 14 15 14 13 13 12 12 12 12 12 12 12 11 9 7 7 8 7 6 5 5 3 2 2 2 3 5 6 7 8 10 11
8 7 5 5 4 5 5 4 4 4 3 4 5 7 7 8 9 10 12 13 13 14 14 14 13 12 11 12 12 12 12 11 10 9 8 8 9 12 12 9 7 6 7 6 7 7 7 8 11 12 12 13 13 12 12 12 12 12 12 12 13 12 11 11 10 10 10 9 8 7 7 6 5 4 3 3 3 3 4 5 6 8 9 11 12
8 6 5 5 6 6 5 4 4 3 2 3 4 6 6 6 8 9 11 12 12 12 13 13 13 12 13 14 15 15 14 13 13 13 12 11 10 10 9 8 7 5 5 5 5 7 6 5 7 10 11 11 11 10 9 9 9 10 10 11 11 11 10 10 9 9 9 9 9 8 8 8 7 5 5 4 5 6 6 6 7 9 10 11 13
8 7 5 5 6 6 6 5 5 5 4 3 3 4 5 5 7 9 10 10 10 11 12 13 14 14 15 16 17 17 16 15 15 15 15 15 13 9 6 6 6 5 4 3 3 4 5 5 5 7 9 10 11 10 9 8 7 8 8 9 9 9 9 8 8 8 8 8 7 7 7 7 7 7 6 5 5 5 5 6 7 8 9 10 12
8 7 5 5 5 5 6 6 6 7 7 6 5 4 4 6 7 9 9 10 10 12 13 14 15 16 16 17 18 17 16 15 14 13 14 15 14 13 10 7 5 5 5 4 3 3 4 5 5 6 7 9 10 10 10 9 8 8 8 8 8 8 8 7 7 7 7 7 6 6 6 6 6 6 6 5 5 5 6 6 7 8 9 10 11
7 7 6 5 5 5 5 5 6 7 8 7 7 7 6 7 8 9 9 9 11 12 13 13 14 15 16 17 16 15 14 12 12 11 11 12 12 12 12 11 9 8 6 4 4 3 2 4 5 6 7 8 9 10 10 10 9 9 9 9 9 9 9 9 8 8 7 7 7 7 7 7 7 7 7 7 6 6 7 7 8 8 9 10 11
7 7 7 6 6 6 5 5 5 5 6 6 7 7 7 7 8 8 8 8 10 11 12 12 12 13 13 13 13 12 11 10 10 10 10 11 11 10 10 10 10 9 6 5 6 5 3 3 4 4 6 8 9 10 10 10 11 11 10 10 10 11 11 11 11 11 9 8 8 7 8 8 8 9 9 9 9 9 9 9 10 10 10 10 11
8 7 7 7 7 6 6 6 5 4 4 4 5 5 6 6 7 8 8 8 8 10 11 10 10 10 10 11 10 9 9 9 9 10 10 10 10 10 9 9 8 7 6 6 7 6 5 3 3 4 5 7 8 9 10 10 11 11 11 11 12 13 14 12 11 12 10 8 8 8 8 8 9 9 10 11 11 12 12 12 12 12 12 12 12
9 9 8 7 7 7 6 6 5 5 4 3 4 4 4 4 5 5 6 6 6 7 9 9 9 9 9 9 9 9 8 8 8 9 9 9 9 8 8 8 8 7 6 6 6 6 6 4 3 3 5 6 6 8 10 11 12 11 10 11 13 15 16 16 12 11 11 9 8 9 9 9 10 11 11 12 12 12 13 14 14 14 14 14 14
10 10 9 8 7 6 6 5 5 4 4 4 4 4 4 3 3 3 4 4 4 5 6 7 7 7 6 6 7 8 8 8 8 8 9 8 7 7 8 8 8 8 7 6 6 6 6 5 4 2 3 5 5 6 9 10 12 12 11 12 14 15 18 19 15 12 11 10 9 10 10 11 12 12 12 12 12 13 13 13 14 15 16 16 17
11 11 10 10 9 8 7 5 4 4 3 4 4 4 4 3 3 3 4 4 4 4 5 5 5 5 5 5 5 6 7 7 7 7 8 8 7 7 8 8 8 7 7 7 6 6 5 5 4 3 2 3 4 6 8 9 9 11 12 13 13 15 19 22 20 16 14 14 14 14 14 15 15 14 13 12 12 12 12 12 13 14 15 16 18
11 11 11 11 10 8 7 6 5 3 3 3 3 4 4 4 4 5 5 5 6 6 6 6 6 6 6 6 6 6 7 7 7 7 7 7 7 7 7 7 6 5 6 6 6 6 5 5 4 3 2 2 2 5 8 9 7 8 10 11 11 14 20 23 22 20 18 18 19 20 21 21 19 17 15 13 12 11 12 12 12 13 14 15 17
12 11 10 10 8 7 6 5 5 4 3 3 3 3 3 4 4 5 5 6 7 7 8 8 8 8 8 8 9 9 8 8 7 6 7 7 7 6 6 6 5 4 4 5 5 5 5 4 3 3 2 2 3 4 8 11 9 8 11 11 8 10 16 22 22 20 18 19 21 23 25 24 22 20 17 14 13 12 11 11 11 12 13 14 15
12 11 10 9 8 6 5 5 5 4 3 2 3 3 3 4 5 5 6 7 8 9 9 9 10 10 11 12 12 11 10 10 10 10 9 9 8 7 6 5 5 4 4 4 4 4 4 3 2 2 1 2 4 4 7 11 8 7 12 14 11 11 15 19 19 15 15 18 21 23 24 24 24 22 20 17 16 15 13 11 10 10 11 13 14
13 13 12 10 10 8 6 5 6 6 5 5 4 4 5 7 7 8 9 9 10 11 12 12 12 12 13 14 13 12 13 13 14 15 14 11 10 9 8 6 5 4 3 3 3 3 2 2 1 2 1 1 3 5 6 8 6 7 11 13 14 15 17 19 15 11 12 16 19 19 19 21 22 20 18 16 15 15 14 11 9 9 9 10 11
18 18 17 16 15 13 11 9 9 8 8 8 7 7 9 10 11 11 13 13 14 15 15 15 15 14 14 16 15 15 15 15 15 17 16 13 11 10 9 7 6 4 4 3 2 1 1 1 2 3 4 3 4 5 6 6 7 9 10 11 12 13 17 18 14 11 12 17 19 18 15 16 18 17 13 11 13 15 13 10 9 9 8 8 10
22 21 20 19 18 16 15 14 13 10 9 10 9 9 12 14 14 14 15 16 15 15 16 16 16 15 15 17 17 16 16 16 16 17 16 14 13 11 9 8 7 5 5 4 2 0 1 2 2 4 6 6 5 6 6 6 8 9 9 10 12 13 14 16 13 11 13 18 22 21 16 14 15 14 10 9 12 13 11 9 9 10 9 9 10
22 21 20 20 19 19 19 19 18 15 11 10 9 10 12 14 15 14 15 15 15 15 16 16 16 15 14 15 15 15 15 15 14 14 14 15 15 13 10 8 7 6 5 4 2 1 1 2 1 2 5 6 5 6 6 6 7 9 9 10 11 12 12 13 13 11 12 18 23 22 18 14 13 13 11 9 10 10 10 11 11 11 11 11 11
21 20 20 20 20 21 21 22 22 21 16 12 12 14 15 16 15 15 15 16 16 16 16 16 15 13 12 13 14 13 12 11 11 11 12 14 16 15 12 10 9 7 5 4 3 2 3 3 3 3 4 6 6 5 6 7 8 10 11 10 9 10 10 11 12 11 12 17 20 19 18 15 12 12 12 10 9 11 13 14 13 12 12 13 11
18 17 19 22 21 21 22 24 25 24 21 19 17 16 16 15 14 13 13 13 13 14 15 15 14 12 12 11 11 11 9 8 7 8 10 14 16 15 13 12 10 7 5 4 3 4 5 4 4 4 5 6 5 5 6 9 10 10 11 11 10 10 11 11 13 15 17 18 16 15 18 16 11 11 14 12 11 12 13 15 15 13 12 13 11
14 13 15 19 20 20 21 21 21 21 19 16 14 14 13 12 10 10 9 9 10 11 12 12 12 11 10 9 7 6 6 6 5 6 9 14 17 17 14 13 10 7 5 4 5 5 5 5 4 4 5 6 5 6 9 11 10 9 10 11 12 12 13 15 17 20 19 16 11 11 16 16 12 13 14 13 13 13 14 16 18 15 11 11 10
12 12 13 15 17 18 17 17 17 15 12 10 11 12 11 10 8 6 6 7 8 9 9 9 8 7 6 6 5 4 4 4 4 5 10 16 18 17 14 11 8 5 4 5 5 4 4 5 5 5 5 7 7 7 10 10 9 10 11 13 14 15 16 17 17 17 15 11 8 9 15 16 14 14 15 14 15 16 15 16 18 15 10 10 10
12 13 14 14 15 15 16 16 15 12 10 11 13 13 12 11 8 5 5 6 6 6 5 4 3 3 2 3 3 3 3 3 3 5 11 16 16 14 11 8 6 5 4 4 4 4 5 5 5 5 6 7 8 9 10 10 10 10 11 12 13 13 13 14 14 13 12 10 8 10 15 16 13 14 15 15 17 18 16 15 16 15 12 11 11
11 12 13 14 14 14 14 14 12 11 13 15 15 14 13 11 8 5 5 5 5 5 4 5 5 5 5 4 4 3 3 4 6 9 11 12 11 9 8 6 5 5 4 4 4 5 6 5 5 6 7 8 9 10 10 11 11 11 11 11 11 11 12 14 14 13 12 12 11 12 15 15 12 14 17 17 17 18 17 14 13 12 11 11 11
10 11 11 11 11 10 10 9 10 12 15 15 14 13 13 11 8 6 6 6 7 7 7 7 7 6 7 6 6 5 6 8 9 10 9 8 7 6 6 5 5 4 4 4 4 5 5 5 6 7 8 9 10 11 11 13 14 13 12 11 12 12 13 13 14 14 14 13 10 10 13 14 13 15 17 18 17 16 14 12 10 10 10 12 15
11 11 11 12 13 12 11 11 11 12 14 14 13 12 12 11 9 8 8 9 9 9 9 10 10 9 9 9 8 7 8 9 9 9 8 6 5 5 4 4 5 4 4 4 3 2 3 4 6 8 9 10 12 13 14 15 16 15 13 12 12 12 13 13 14 14 13 10 8 11 15 17 16 16 16 16 15 12 10 10 11 12 14 16 17
Wind_Direction
191 189 185 177 175 178 184 184 174 172 163 134 120 124 122 127 137 138 132 123 106 97 100 120 145 150 149 146 154 169 175 178 184 189 203 219 211 195 142 129 134 139 142 149 163 174 186 199 202 195 207 213 214 258 314 340 332 317 43 48 46 48 42 42 48 51 58 74 90 92 91 95 94 97 99 99 98 100 105 109 111 111 113 111 107
205 203 196 187 182 187 194 195 188 180 170 156 143 139 139 141 145 146 141 133 115 102 98 116 137 143 153 160 160 167 174 179 181 184 193 205 204 207 146 128 131 139 139 133 151 164 176 193 199 204 218 215 205 224 284 323 329 315 331 3 9 14 17 22 26 24 24 35 65 93 100 102 101 102 105 104 102 101 105 112 112 115 125 122 112
217 212 206 202 200 207 207 200 192 184 178 172 166 161 160 154 155 156 150 144 130 114 102 113 130 132 141 163 164 160 173 183 184 187 192 203 211 203 162 136 133 143 147 125 144 156 141 173 184 199 223 226 212 214 234 261 280 294 306 313 332 344 347 354 7 9 6 7 10 43 91 103 111 110 114 112 110 110 109 114 116 115 121 119 113
220 218 217 225 231 230 217 201 197 194 191 186 181 171 162 156 157 158 154 150 140 127 115 112 125 128 127 151 167 166 172 184 188 193 197 205 213 207 201 160 146 159 168 152 156 161 148 140 162 184 218 230 221 228 236 251 258 256 283 290 299 322 329 328 328 343 356 355 352 348 3 37 91 97 121 125 119 123 118 115 117 118 118 119 120
232 225 212 228 239 234 223 212 209 207 206 199 190 174 158 155 154 156 156 149 139 128 124 124 132 135 134 146 169 184 185 186 190 192 195 205 217 215 211 200 179 173 179 200 207 187 186 156 143 166 163 211 215 232 241 252 265 246 267 283 290 302 317 324 313 310 329 338 344 344 345 349 359 33 79 128 132 134 128 124 124 123 122 125 128
246 240 213 226 238 235 229 223 217 211 210 203 190 175 159 158 161 160 157 152 142 127 122 139 155 157 160 161 170 189 193 191 192 193 197 210 224 226 222 228 217 200 196 217 235 222 218 215 178 173 107 45 197 233 240 238 255 251 251 270 283 290 300 323 317 305 315 318 323 335 338 332 327 335 356 30 156 164 146 139 137 135 131 129 132
255 256 225 229 239 240 236 230 224 216 205 190 175 168 164 169 171 167 167 167 161 143 136 159 173 172 170 172 177 194 204 203 202 202 207 211 221 231 236 251 248 235 227 243 277 267 247 241 240 239 256 325 324 244 250 240 246 250 252 262 276 288 289 304 311 302 312 316 314 322 326 320 320 325 324 323 281 233 189 170 158 157 151 141 142
268 261 225 227 228 225 231 232 227 214 190 163 161 165 168 178 180 174 172 173 173 164 162 185 186 174 170 174 180 196 207 208 208 212 217 220 228 236 243 259 273 287 295 314 315 298 287 266 249 248 256 278 294 282 261 253 249 246 252 261 269 287 286 290 300 292 290 304 313 322 328 319 315 324 324 315 296 277 250 214 192 179 172 161 158
287 236 222 227 207 204 221 227 222 207 196 165 159 177 179 185 188 179 168 164 161 153 163 210 195 169 162 168 178 192 198 201 210 216 221 232 241 246 253 261 277 313 318 306 301 298 298 291 280 268 261 269 280 286 279 268 262 252 248 252 255 267 286 291 296 287 270 276 292 309 327 326 317 319 318 314 305 291 273 249 229 206 195 185 177
328 248 240 241 217 208 222 230 229 219 223 212 192 199 196 197 195 186 177 159 145 147 175 204 186 155 143 155 166 174 170 170 200 212 215 237 250 252 260 272 277 286 297 298 295 301 311 309 304 295 280 271 272 279 283 282 279 270 262 259 252 251 267 283 283 280 266 262 267 279 303 319 320 320 314 307 302 297 284 262 245 229 220 205 195
50 269 254 261 252 243 245 244 249 242 231 230 217 210 206 202 195 188 180 159 146 159 191 199 180 158 146 157 167 171 179 196 223 236 240 247 254 257 264 303 280 262 267 286 295 307 319 317 312 310 296 285 280 279 281 282 279 279 279 277 273 259 252 259 266 270 273 264 258 261 276 293 301 310 313 305 293 288 287 274 254 240 235 223 211
65 166 212 250 266 261 259 248 253 248 227 223 216 211 202 191 190 189 173 153 146 162 195 202 177 152 147 166 177 186 203 222 233 241 246 252 259 262 267 19 295 268 267 282 297 309 313 311 307 313 314 302 295 286 283 288 286 284 284 278 279 277 262 255 257 258 259 264 263 256 262 272 281 289 295 295 285 279 280 279 269 253 244 237 228
63 94 160 167 248 257 253 241 242 234 219 217 206 190 180 177 178 181 169 154 150 162 184 190 167 137 128 128 137 157 150 140 187 216 225 296 324 304 300 317 345 304 301 308 316 317 316 319 316 314 319 316 309 303 301 310 306 295 290 283 279 280 277 268 262 260 255 250 251 255 261 265 267 273 278 278 276 275 272 271 274 266 255 249 242
83 97 113 104 165 233 233 228 226 223 228 227 201 172 170 172 167 160 161 158 156 163 165 165 166 157 149 138 115 94 79 76 78 66 45 54 55 53 55 78 86 46 15 3 351 354 352 355 358 347 341 336 332 333 326 318 314 304 296 291 284 278 276 275 270 271 268 258 250 245 250 260 263 263 266 267 268 272 269 266 269 267 260 257 250
99 105 106 116 189 229 221 218 217 223 235 230 199 181 175 174 171 158 156 155 147 158 163 169 187 177 154 153 150 136 103 80 65 46 42 64 67 70 75 81 83 71 57 48 26 23 24 20 19 10 0 357 354 357 348 321 311 307 299 294 293 285 276 274 274 276 278 275 268 256 243 245 253 256 258 261 263 268 269 267 267 266 261 256 252
110 107 103 111 164 197 192 205 221 220 226 226 203 195 184 168 171 164 159 158 146 151 166 180 191 178 151 133 150 185 186 128 85 56 54 73 71 71 79 81 76 62 53 46 33 26 26 25 23 18 16 12 4 3 358 343 328 321 314 308 305 300 290 278 278 285 284 278 273 266 253 245 245 246 250 257 264 269 272 272 269 266 264 260 254
122 107 89 70 65 108 155 178 210 209 198 210 194 187 185 159 169 173 168 165 151 146 156 166 177 182 177 145 150 197 172 153 140 79 59 64 66 67 73 73 65 56 56 53 45 38 32 22 17 12 5 359 356 358 0 355 345 345 343 327 315 310 302 283 277 304 312 297 283 272 262 256 251 244 242 250 261 267 269 270 270 268 267 263 258
129 109 83 66 71 96 112 171 199 207 194 204 201 188 178 159 165 172 177 174 156 152 157 157 166 180 188 180 186 194 147 156 172 121 83 65 61 67 69 74 76 70 69 70 67 65 61 53 41 24 9 1 359 356 356 350 344 350 354 346 338 328 317 298 284 300 316 309 299 288 273 263 258 250 242 243 250 256 260 262 265 267 263 259 259
129 110 88 80 81 97 111 126 105 102 156 165 173 171 172 183 176 160 177 186 174 169 165 155 153 162 177 180 184 183 160 152 161 145 117 81 70 74 74 81 86 80 74 76 77 77 75 71 66 60 54 46 38 33 27 21 17 15 1 354 356 348 339 330 311 302 302 298 294 293 281 265 260 254 245 243 242 241 246 251 256 260 256 253 256
121 112 105 90 74 74 97 123 93 83 120 126 134 142 145 167 168 155 167 176 176 177 172 164 155 145 147 150 148 159 162 154 159 161 144 121 100 88 82 83 84 82 78 77 79 81 80 76 71 68 69 66 62 61 58 55 54 50 37 22 14 360 350 351 341 327 318 300 280 276 273 259 252 247 243 246 243 234 236 241 247 252 252 250 252
112 113 118 100 79 66 66 115 117 100 116 115 118 129 132 144 147 149 159 165 168 171 175 172 161 148 145 142 136 137 141 145 161 165 150 143 134 116 104 90 79 74 75 78 78 77 78 76 71 67 67 66 64 64 63 61 58 52 45 41 35 24 13 11 1 349 342 298 266 265 276 262 250 248 248 251 248 235 234 239 245 250 252 253 256
113 113 121 109 96 75 62 109 138 121 118 111 108 115 121 133 133 138 147 156 165 164 164 164 156 150 151 150 145 146 151 154 160 160 150 142 136 137 132 110 90 76 72 75 75 72 72 71 68 65 63 63 63 63 62 58 55 48 43 41 39 36 31 35 40 48 60 52 30 46 32 14 327 267 260 260 256 243 240 245 249 250 251 253 257
117 119 125 115 102 84 74 117 138 132 124 114 108 107 107 112 116 124 133 138 145 142 142 148 149 149 152 155 157 162 165 161 157 155 149 142 138 138 133 120 109 96 81 75 73 70 67 64 61 60 60 62 63 64 63 60 57 52 46 42 42 40 36 38 44 53 61 58 47 49 56 59 59 46 283 268 261 256 257 256 250 249 251 252 255
126 127 127 115 99 92 98 132 144 141 133 120 113 111 107 105 106 112 119 122 125 125 129 138 143 142 142 139 132 130 131 132 136 139 140 143 141 133 132 129 117 109 101 86 75 68 64 60 58 57 57 60 62 64 66 63 61 58 53 49 48 47 44 41 40 41 43 45 43 43 46 47 46 41 19 325 263 256 262 260 249 249 252 253 255
140 136 132 121 107 101 115 140 147 145 137 124 119 118 113 109 108 109 111 116 119 119 121 127 131 131 131 127 122 120 119 121 124 126 129 138 139 132 133 137 128 123 120 104 89 75 64 59 56 55 55 58 63 66 68 67 64 62 60 58 56 55 53 52 51 52 51 46 46 50 53 51 44 39 24 357 316 260 266 268 259 257 256 256 258
150 141 131 118 105 108 120 130 133 134 133 126 125 126 121 118 116 112 111 116 119 118 117 120 124 126 129 130 128 125 124 124 125 128 132 140 143 140 136 132 130 129 123 109 103 87 70 61 55 52 53 55 61 66 68 68 66 65 65 64 63 62 61 61 61 62 63 53 36 33 42 50 46 44 43 30 9 306 280 276 273 274 272 270 270
153 141 125 102 91 106 118 121 124 125 126 129 132 133 132 128 125 120 120 122 123 122 122 124 127 131 136 136 131 127 125 124 122 122 127 135 142 145 143 139 136 135 130 115 94 79 76 72 59 50 48 51 55 61 66 65 64 63 64 66 66 63 62 62 62 60 58 52 40 29 31 37 32 20 7 347 339 335 318 301 291 284 281 281 280
151 141 121 92 86 97 104 106 106 100 105 131 145 148 145 138 133 130 128 130 129 126 127 130 131 132 136 133 126 122 121 118 114 111 111 116 130 147 152 152 149 143 143 133 103 81 72 76 67 52 45 47 50 55 61 60 57 55 55 57 58 56 52 52 53 53 52 53 54 50 43 41 36 26 8 340 322 316 308 303 300 293 286 281 278
151 145 126 97 92 94 91 88 81 72 72 88 126 149 152 145 140 135 132 131 129 125 125 128 129 129 130 127 123 120 118 113 108 105 104 105 112 122 135 151 154 150 149 135 111 89 70 62 61 51 44 45 47 52 56 53 49 50 48 45 44 41 35 31 32 34 37 40 41 39 34 32 31 30 26 17 359 340 325 312 304 300 295 288 282
152 153 142 120 110 103 93 84 76 72 70 74 87 106 125 133 131 128 127 125 122 122 124 126 127 128 127 125 123 121 119 115 109 105 103 102 102 102 102 108 119 126 135 128 107 94 81 66 56 50 45 46 47 51 54 51 46 50 49 42 38 33 21 13 10 10 10 11 11 11 10 8 7 7 6 4 358 347 336 324 312 308 305 300 295
152 158 159 147 137 128 110 93 80 75 70 71 79 85 96 112 119 118 120 122 119 118 120 123 124 125 125 124 123 122 120 117 114 111 108 108 105 101 97 95 96 100 108 117 112 101 84 68 58 52 50 52 51 52 54 51 47 49 49 45 40 34 25 13 5 359 354 350 349 346 342 340 336 335 333 332 330 327 324 319 313 309 305 303 301
156 159 166 164 156 151 139 123 104 90 80 78 83 86 91 100 111 117 121 125 122 119 120 122 122 124 125 124 123 124 122 120 119 118 116 116 113 108 103 98 97 97 93 94 102 109 105 79 68 60 57 57 52 52 56 53 51 53 53 48 43 40 36 25 11 6 359 350 346 342 337 332 325 319 315 312 310 309 308 307 307 305 303 302 301
168 168 174 175 171 167 160 153 142 128 118 107 102 99 100 103 109 118 126 130 131 129 129 128 129 132 133 132 130 128 126 125 124 123 123 123 120 115 112 108 103 97 91 91 99 115 123 105 87 75 65 63 53 51 55 52 49 49 47 45 43 41 39 33 19 8 4 360 356 353 348 342 335 325 317 311 306 303 300 299 298 297 297 296 296
179 178 180 184 183 179 173 172 168 161 157 152 139 126 122 120 119 123 132 139 140 143 145 144 144 144 143 143 140 137 137 135 133 133 133 132 129 124 118 115 111 102 94 96 99 110 125 125 116 96 68 64 56 46 45 45 44 41 35 31 33 31 28 30 25 10 7 8 4 2 360 355 347 338 327 318 311 305 301 298 295 293 292 291 290
191 186 184 186 189 185 181 184 186 185 184 181 176 166 155 152 154 159 165 168 167 165 166 165 166 166 161 157 154 150 150 148 145 145 144 142 138 133 126 118 115 108 98 100 103 108 123 128 127 119 70 56 50 37 31 29 29 30 26 20 21 20 16 19 20 10 5 5 3 1 357 352 347 339 332 323 315 309 303 299 295 293 290 288 286
203 198 192 188 189 189 189 190 191 198 208 210 208 202 198 196 198 209 215 216 217 214 206 198 195 196 194 193 192 180 171 167 163 160 157 154 147 139 133 124 119 111 100 99 103 109 122 131 132 125 84 53 41 27 21 15 11 13 14 10 11 10 6 9 10 5 360 359 357 356 354 351 346 340 333 325 315 308 302 298 294 291 289 287 285
210 207 200 192 191 192 194 193 187 185 195 207 217 222 229 235 239 244 246 244 244 241 238 236 231 228 225 225 227 217 201 192 183 177 176 171 162 156 148 138 132 120 104 99 103 106 114 127 138 130 87 57 33 20 17 12 3 359 1 358 358 360 358 360 1 359 356 355 352 351 353 354 351 347 343 336 324 314 305 298 293 290 288 286 284
210 208 203 195 188 181 180 182 180 181 187 196 208 219 238 254 261 264 265 264 261 257 256 257 252 250 252 248 247 243 227 217 214 208 204 199 189 183 173 160 151 134 113 101 97 97 99 107 121 124 96 44 27 19 9 8 6 359 357 354 349 350 350 352 354 354 354 352 348 347 349 352 352 350 350 347 339 332 321 306 295 290 290 289 286
211 206 199 188 178 174 182 193 197 206 225 234 231 240 270 284 280 276 276 279 280 276 273 273 265 257 254 248 245 247 242 238 244 244 233 221 210 202 195 181 165 147 125 109 101 96 92 94 87 80 78 16 12 6 359 4 7 360 358 354 345 342 343 345 347 348 348 347 345 343 343 347 350 348 349 351 348 343 336 321 305 297 295 296 294
213 208 205 200 195 196 205 224 236 239 249 258 258 268 289 298 297 290 286 287 290 286 283 281 273 262 255 250 244 243 245 243 241 241 237 230 219 209 203 194 179 161 139 122 111 96 80 79 66 33 8 352 3 357 352 0 1 352 353 350 340 337 338 340 341 338 339 343 342 338 336 340 345 345 344 347 346 342 340 334 324 314 309 309 308
218 218 222 221 216 211 213 230 248 249 246 251 259 270 281 292 299 296 289 286 285 283 281 277 273 268 262 257 250 247 253 252 242 237 239 241 234 225 217 207 197 188 165 147 126 94 38 7 12 1 344 338 351 350 344 349 347 341 342 341 334 332 333 334 334 330 333 339 339 335 330 332 337 340 339 335 335 339 342 341 328 318 314 319 322
217 221 225 220 216 221 226 229 236 242 248 256 265 274 280 286 291 289 283 278 276 276 275 273 271 270 268 264 259 257 261 261 248 237 237 241 241 240 237 224 211 200 180 166 152 128 325 339 355 346 333 327 334 338 331 329 332 331 332 333 330 329 331 331 330 328 330 335 336 333 327 324 329 334 330 322 327 335 337 328 311 303 303 310 320
219 225 225 218 220 230 233 228 226 229 239 258 272 282 286 286 285 281 274 269 268 268 271 272 271 270 269 267 266 265 265 265 255 240 234 235 234 232 229 217 206 201 190 177 166 178 275 305 310 305 311 311 312 316 318 320 323 325 326 325 323 327 330 326 323 321 323 330 331 327 321 321 323 324 321 316 319 323 321 315 306 296 294 296 304
230 230 227 226 228 228 225 225 226 225 231 251 268 273 276 278 277 273 267 265 265 265 266 267 267 267 267 267 269 270 270 271 265 248 234 226 221 217 211 202 199 200 197 191 192 236 271 267 261 272 288 299 304 302 307 316 318 318 319 318 317 321 320 313 311 309 311 322 327 319 312 314 315 313 314 311 307 310 314 317 315 301 290 288 292
235 229 225 229 232 226 222 226 231 230 233 244 252 253 255 261 264 263 260 260 262 262 261 261 261 262 264 267 273 275 273 273 266 251 235 218 207 202 200 198 198 198 202 216 252 276 271 261 266 276 280 290 299 297 298 308 314 315 315 316 316 315 310 304 302 302 304 311 317 310 305 308 309 305 307 306 302 305 307 310 316 310 289 282 284
231 222 221 224 227 225 225 228 228 227 227 230 231 231 236 242 242 243 246 251 254 254 255 255 254 255 257 258 263 267 266 263 253 240 225 206 193 188 190 193 193 195 211 250 276 273 262 261 267 269 273 279 286 293 302 310 315 312 309 311 312 309 304 300 298 299 301 301 302 302 299 302 307 302 300 301 301 303 300 301 312 313 288 272 275
228 222 221 221 222 222 220 218 216 215 214 214 216 216 214 209 205 213 233 244 246 247 246 246 245 246 248 243 235 234 238 239 236 221 203 191 185 183 184 186 189 204 236 260 261 255 259 265 262 259 269 281 289 296 305 313 312 307 305 305 305 301 298 298 297 298 299 291 283 291 294 298 304 299 296 300 301 300 297 297 306 309 284 263 265
231 227 225 224 224 221 217 216 215 206 194 194 198 194 186 180 178 192 222 234 234 230 224 213 198 187 184 185 187 196 210 208 182 178 184 184 181 181 181 185 200 223 241 246 245 261 273 269 268 275 282 292 299 301 305 309 305 305 306 302 299 296 294 296 296 296 297 290 280 288 292 295 301 298 296 301 301 298 296 294 298 298 278 258 259
219 219 220 222 223 220 219 221 214 190 173 174 177 175 173 172 171 179 208 215 199 180 157 135 128 128 126 124 126 133 147 150 146 155 170 176 178 181 187 196 207 212 218 234 252 267 275 279 289 299 300 303 305 305 307 307 304 306 305 297 298 302 298 297 297 296 297 295 290 292 291 291 298 301 299 301 299 295 294 293 293 288 276 271 277
200 200 202 201 195 189 190 188 180 171 164 161 165 171 172 170 168 172 187 182 163 148 134 127 126 125 121 112 106 115 132 139 143 150 159 169 179 185 190 191 186 186 210 242 263 274 288 304 308 308 309 308 306 306 305 303 302 303 298 291 296 300 295 292 295 296 297 293 294 300 296 293 300 305 303 303 299 292 289 289 290 287 286 294 298
179 173 169 161 151 145 144 142 144 153 156 157 164 170 172 171 169 172 175 166 153 145 139 135 134 130 124 117 114 122 135 139 143 149 152 158 169 173 174 171 163 177 220 241 248 266 293 307 306 307 308 305 304 304 302 301 301 298 289 282 285 288 287 287 292 295 294 291 298 305 298 296 301 303 303 305 303 296 291 290 292 293 293 297 297
Height
837 837 838 838 839 839 840 841 841 841 842 842 843 844 846 846 847 848 849 849 850 851 851 852 853 853 853 853 854 854 854 855 855 856 856 857 857 858 858 858 858 859 860 860 861 861 862 862 863 863 863 863 864 864 864 864 864 864 864 864 864 864 864 864 864 864 864 864 864 864 863 863 863 863 863 863 862 862 861 861 861 861 861 861 861
836 837 838 838 839 839 839 839 840 840 841 841 843 844 845 845 846 847 848 849 850 851 851 852 853 853 853 854 854 854 855 855 856 856 857 857 857 858 858 858 858 859 860 860 861 861 862 862 862 863 862 863 863 864 864 864 864 864 864 864 864 865 864 864 864 864 864 864 864 864 864 864 863 863 863 863 863 863 863 862 862 862 861 862 862
835 837 838 838 839 839 838 838 839 839 840 840 841 842 843 844 845 846 847 848 849 850 851 852 852 853 853 854 854 855 855 856 856 856 857 857 857 858 858 858 859 859 860 860 860 861 861 862 862 863 863 863 863 864 864 865 865 865 865 865 865 865 865 865 865 865 865 865 865 865 864 864 864 864 864 864 864 864 863 863 863 862 862 862 862
835 836 838 839 839 838 838 839 839 839 839 840 841 842 843 844 844 845 846 847 848 849 851 851 852 853 853 854 855 855 855 856 856 856 857 857 857 858 858 858 859 859 860 860 860 861 861 862 862 863 863 863 863 864 864 865 865 865 865 865 865 866 866 866 866 866 865 865 865 865 865 865 864 864 864 864 864 864 864 863 863 863 863 863 863
834 835 837 839 837 837 839 839 839 839 839 840 841 842 843 844 845 845 846 847 848 849 850 851 851 851 852 853 854 855 855 856 856 856 857 857 857 858 858 858 859 859 859 860 860 861 861 862 862 863 863 863 864 864 864 864 865 865 865 865 865 866 866 866 866 866 866 866 866 866 866 866 865 865 865 864 864 864 864 864 864 863 863 863 863
833 834 836 837 836 837 839 839 838 838 839 840 840 841 842 844 845 846 847 847 848 848 849 850 850 850 851 852 853 854 855 856 856 857 857 857 858 858 858 858 858 859 859 860 860 861 862 862 862 863 863 863 864 864 864 864 864 865 865 865 865 866 866 866 866 866 867 867 867 867 867 866 866 866 866 865 865 865 865 865 864 864 864 864 864
833 835 836 835 836 838 838 838 838 838 839 839 840 840 841 843 844 845 846 847 847 848 849 849 849 850 850 851 852 854 855 856 856 857 857 857 857 857 858 858 859 859 860 861 861 861 862 862 863 863 863 863 863 864 864 864 864 864 865 865 865 866 866 866 866 867 867 867 867 867 867 867 867 867 866 866 866 865 865 865 865 865 864 864 864
833 836 836 833 835 837 837 838 838 838 839 839 840 840 841 842 843 844 845 847 847 848 848 849 850 851 851 851 852 853 854 855 856 856 856 856 857 857 858 858 859 859 860 861 861 861 861 862 862 862 863 863 863 864 864 864 864 865 865 865 865 865 866 866 866 866 867 867 867 868 868 868 868 868 867 867 867 866 866 866 865 865 865 865 865
833 836 834 833 835 836 836 837 837 838 838 839 839 840 841 842 843 844 845 846 847 848 848 849 850 851 851 851 852 853 854 855 855 856 856 856 857 857 858 858 858 859 860 860 860 861 861 861 862 862 862 863 863 863 863 863 864 864 864 865 865 865 865 866 866 866 867 867 867 868 868 868 868 868 868 868 867 867 866 866 866 865 865 865 865
832 833 833 833 835 835 835 836 836 837 837 838 839 839 841 842 843 844 845 846 847 848 848 848 850 853 852 851 851 853 854 855 855 856 856 856 857 857 857 857 858 859 859 860 860 860 860 860 861 861 862 862 862 862 862 863 863 863 863 864 865 865 865 865 865 866 866 866 867 867 868 868 868 868 868 868 868 867 867 866 866 866 865 865 865
832 832 832 833 833 834 834 835 835 836 836 837 838 839 841 842 843 844 844 846 847 847 847 847 850 853 853 852 851 853 854 855 855 856 856 856 856 856 857 858 858 859 859 859 859 860 860 860 860 861 861 861 861 861 861 862 862 862 863 863 863 864 864 864 864 865 865 865 865 866 866 867 867 867 867 867 867 867 867 866 866 866 865 865 865
831 832 833 833 833 833 834 835 835 836 836 837 838 839 840 842 843 843 844 846 847 847 847 848 851 853 854 853 852 853 855 856 856 855 856 856 856 856 857 858 859 858 858 858 859 859 859 859 859 859 860 860 859 860 860 860 861 862 862 862 862 862 863 863 863 864 864 864 864 864 864 864 865 865 866 866 866 866 866 866 866 865 865 865 865
830 831 832 833 833 834 834 835 835 836 836 836 837 838 840 841 842 843 844 846 847 847 847 849 852 853 854 854 854 854 855 856 856 856 856 856 856 856 857 858 858 858 858 858 858 859 858 858 858 858 859 859 859 859 859 859 860 860 861 861 861 861 862 862 862 862 863 863 863 863 863 862 862 863 863 864 864 864 864 865 865 865 865 865 865
831 831 831 832 833 834 835 835 835 836 836 836 837 838 839 840 842 843 844 845 846 847 848 850 851 852 853 854 855 856 856 857 857 856 856 856 856 856 856 857 858 858 858 858 858 858 858 858 858 858 858 858 858 858 859 859 859 859 861 861 860 860 860 860 860 861 861 861 862 862 862 862 861 861 861 862 862 862 863 863 863 864 864 864 864
831 831 831 832 833 834 834 835 835 835 835 836 836 837 838 840 841 842 843 844 846 847 848 849 849 849 851 854 855 856 856 857 857 857 857 857 857 857 857 857 858 858 858 858 858 858 858 858 858 857 857 857 857 858 858 857 857 858 860 860 859 859 859 858 859 859 859 859 860 860 861 861 860 860 860 860 861 862 862 862 862 863 863 863 863
832 832 833 833 833 834 834 834 835 835 836 836 836 837 838 839 840 841 842 843 845 847 848 849 848 847 850 853 855 855 855 856 857 858 858 858 858 857 858 858 858 859 859 858 858 858 858 858 857 857 857 857 857 857 857 856 856 858 859 860 859 858 857 857 857 857 858 858 858 857 858 858 858 859 859 860 861 862 862 862 862 862 862 862 862
834 834 834 834 834 834 834 835 835 835 836 836 837 837 837 838 839 840 842 843 844 846 848 849 848 848 849 851 853 853 854 855 857 859 859 859 858 858 858 858 858 858 858 858 858 858 858 857 857 857 857 857 857 857 857 858 858 858 859 858 857 857 856 856 855 856 856 856 856 856 855 856 856 857 857 859 860 861 861 861 861 861 860 861 861
835 835 835 835 835 834 834 835 835 835 836 836 837 837 837 838 839 839 841 842 843 845 847 848 848 848 849 849 849 849 851 853 854 857 859 859 859 859 859 858 858 858 858 858 858 858 858 858 857 857 857 857 857 857 858 858 859 858 858 856 856 856 855 854 854 854 855 855 855 855 855 854 854 855 856 858 859 859 859 859 859 859 859 860 860
835 835 835 835 835 835 835 835 835 835 835 836 837 837 837 838 838 839 840 841 842 843 845 847 847 848 849 848 847 847 849 851 852 854 857 860 861 860 859 859 858 859 859 859 859 858 858 858 858 858 857 857 858 858 858 858 858 857 857 856 855 855 854 853 853 853 854 854 855 855 855 854 853 853 854 856 856 856 856 856 857 857 858 859 859
835 835 836 836 836 836 835 835 835 835 835 836 837 837 837 838 838 839 839 840 841 842 843 845 846 847 848 848 848 848 849 850 851 852 853 858 861 861 861 860 859 859 860 860 860 859 859 859 859 859 858 858 858 858 858 858 858 857 856 856 855 854 853 853 853 853 853 853 853 853 853 852 852 852 851 851 852 853 853 853 854 855 857 857 858
835 836 836 836 836 836 836 835 835 835 835 836 836 837 837 838 838 839 839 840 841 842 842 844 845 846 847 848 848 848 849 850 851 852 851 854 858 860 861 861 860 861 862 862 862 861 861 860 860 860 859 859 859 859 859 858 858 857 857 856 855 854 854 853 853 853 852 852 852 852 853 851 851 850 848 848 849 850 851 851 853 855 856 856 856
835 835 836 836 836 837 836 836 836 836 836 836 836 837 837 838 838 839 839 840 840 841 842 843 844 845 846 847 847 848 849 850 851 851 852 853 855 857 859 860 861 863 863 863 863 863 862 862 861 861 861 861 861 860 860 859 859 858 858 857 856 855 854 853 853 853 852 852 852 852 852 851 849 849 847 847 847 848 849 850 852 854 855 855 855
835 835 836 836 837 837 837 837 837 837 837 837 838 838 838 838 839 839 839 840 840 841 841 842 844 845 846 846 847 848 848 849 850 851 851 852 854 856 858 859 860 863 864 864 864 863 863 863 863 862 862 862 862 862 861 861 860 859 858 857 856 855 855 854 854 853 852 852 852 851 851 850 849 848 847 847 847 847 848 850 851 852 853 853 853
835 836 836 837 837 837 837 838 838 838 838 839 839 839 839 839 839 839 840 840 840 841 841 843 844 845 846 847 847 848 849 849 850 851 851 852 853 855 857 859 860 862 864 864 864 864 864 864 864 864 864 863 863 863 862 862 861 860 859 858 857 856 855 855 854 854 853 852 852 851 850 849 848 848 847 846 847 847 848 849 850 850 850 851 851
836 836 837 837 837 838 838 838 839 839 840 840 840 840 840 841 841 841 841 841 841 842 842 843 844 845 846 847 848 849 850 850 851 851 852 853 853 855 857 859 859 862 864 864 864 865 865 865 865 865 865 864 864 863 863 862 862 861 860 859 858 857 856 855 855 854 853 853 852 851 850 849 848 848 847 847 847 847 848 849 849 849 848 848 848
836 836 837 837 838 838 839 840 840 841 841 841 841 841 842 842 842 842 842 842 843 843 843 844 845 846 847 848 849 850 850 851 852 852 852 853 853 854 857 858 860 861 862 864 864 865 865 866 866 866 865 865 864 864 863 863 862 861 861 860 859 858 857 856 856 855 854 853 852 852 851 850 849 848 848 848 848 848 848 848 848 848 847 847 847
836 836 837 837 838 839 839 840 841 842 842 843 843 843 843 843 843 843 843 844 844 844 845 845 846 847 848 849 850 850 851 852 852 853 853 853 853 854 855 857 859 861 862 863 864 865 866 867 867 866 866 865 865 864 864 863 863 862 861 860 859 859 858 857 856 855 854 853 852 852 851 850 849 849 849 848 848 848 847 847 847 847 846 846 846
836 837 837 838 838 839 840 841 842 843 843 844 844 844 844 844 844 845 845 845 845 845 846 846 847 848 849 850 850 851 852 852 853 853 853 853 854 855 856 856 857 860 861 863 864 866 867 867 867 867 866 865 865 865 864 864 863 862 862 861 860 859 858 857 856 855 854 853 852 852 852 850 850 849 848 848 847 847 847 846 846 846 846 845 845
836 836 837 838 839 839 840 841 842 843 844 844 845 845 845 846 846 846 846 846 846 846 847 847 848 849 849 850 851 852 852 853 854 854 854 855 855 856 857 856 856 858 860 862 864 866 867 867 867 867 867 866 865 865 864 864 863 862 862 861 860 859 859 858 857 855 855 854 853 852 851 850 850 849 848 848 847 847 846 846 845 845 844 844 843
835 836 838 838 839 840 841 842 842 843 844 844 845 846 846 847 847 848 848 848 848 848 848 849 849 850 850 851 852 852 853 854 854 855 855 856 856 856 857 858 858 858 858 860 864 866 867 867 868 868 867 866 865 865 864 864 863 862 862 861 860 859 858 858 857 855 855 854 853 852 851 850 850 849 848 847 847 846 845 845 844 844 843 843 842
835 836 838 839 840 841 842 843 843 844 845 845 846 847 847 848 848 849 850 850 850 850 850 851 851 851 852 852 853 853 854 855 855 856 856 857 857 858 858 859 859 859 860 860 862 866 867 867 868 868 867 867 866 865 864 864 863 862 861 861 860 859 858 857 856 855 854 853 853 852 851 850 849 848 848 847 846 845 844 844 843 842 842 841 840
834 835 837 839 840 841 842 843 844 844 845 846 846 847 848 849 849 850 851 851 851 852 852 853 853 853 854 854 854 855 855 856 856 857 857 858 858 859 859 860 860 860 861 860 861 865 867 868 868 868 867 867 866 866 865 864 863 862 861 861 860 859 858 857 856 855 854 853 852 851 850 849 848 848 846 846 845 844 843 842 841 841 840 839 838
834 835 837 838 839 841 841 842 844 844 845 846 847 848 848 849 850 850 851 852 852 853 853 854 854 854 855 855 855 856 856 857 857 858 858 858 859 859 860 860 861 861 861 861 862 864 866 867 867 867 867 866 866 865 865 864 863 862 862 861 860 859 858 857 856 854 853 852 851 850 849 849 847 847 845 844 843 842 842 841 840 839 838 837 837
832 834 836 837 839 840 841 842 843 844 845 846 847 848 849 849 850 851 852 852 853 854 854 854 855 855 855 855 856 856 856 857 858 858 858 859 859 860 860 860 861 861 861 862 862 863 865 866 866 866 866 866 865 865 864 863 863 862 861 861 859 859 858 857 856 854 852 851 850 849 849 848 847 845 844 843 842 841 840 839 838 837 836 836 835
832 833 835 836 838 839 841 842 843 843 845 846 847 848 848 849 850 851 852 852 853 854 854 855 855 856 856 856 856 857 857 857 858 858 858 859 860 860 860 860 861 861 861 861 862 862 864 865 865 866 865 865 864 864 863 862 861 861 861 860 859 858 857 856 855 854 852 851 850 849 848 847 846 844 843 842 841 839 838 837 836 835 834 833 833
831 832 834 835 837 838 839 841 842 843 844 846 847 848 848 849 850 851 852 852 853 853 854 855 855 856 856 857 857 857 858 858 858 858 858 859 859 860 860 860 860 860 860 861 861 862 862 863 864 864 864 864 863 863 862 862 861 860 859 859 858 857 856 854 853 852 851 849 848 847 846 845 844 842 841 840 839 837 836 835 834 833 832 831 830
831 832 833 834 836 837 838 840 841 842 843 845 846 847 848 848 849 850 851 851 852 853 854 854 855 856 856 857 858 858 858 858 858 858 859 859 859 859 859 859 860 860 860 860 860 861 861 862 863 863 863 863 863 862 861 861 861 860 859 858 856 855 854 853 852 851 849 847 846 845 844 843 841 840 839 838 836 835 834 833 832 831 830 829 828
830 831 832 833 835 836 838 839 840 841 842 844 845 846 847 847 848 848 849 850 851 852 853 854 854 855 855 856 857 858 858 859 859 859 859 858 858 859 859 859 859 859 859 860 860 861 861 862 862 862 862 862 862 862 861 860 860 859 858 857 856 854 853 851 850 849 847 846 845 843 842 841 839 838 837 835 834 833 832 831 830 829 828 826 825
829 831 831 832 833 835 836 837 838 840 841 842 843 845 846 846 846 847 848 848 849 850 851 853 853 854 854 854 856 857 858 858 858 858 858 858 858 858 858 858 859 859 859 860 860 860 861 861 862 862 862 862 861 861 860 859 858 858 857 856 855 853 852 850 849 848 846 845 843 841 840 838 837 836 834 833 832 831 830 829 827 826 825 824 823
827 829 830 830 831 832 834 836 837 838 839 840 842 843 844 845 845 846 846 847 848 849 850 851 851 852 852 852 853 854 855 855 855 856 856 856 856 857 857 857 858 859 859 859 860 860 860 860 861 861 861 861 860 860 859 858 858 857 856 855 854 852 850 849 848 846 845 844 842 841 839 837 836 834 833 832 831 829 828 827 826 825 824 822 821
825 826 827 827 828 829 831 833 835 837 837 839 840 842 843 844 844 844 845 846 847 848 848 849 849 849 849 850 851 852 852 852 853 854 854 855 855 855 856 856 856 857 858 859 859 859 860 859 860 860 860 860 860 859 859 858 857 856 855 855 853 852 850 848 847 845 843 842 841 839 838 836 834 834 832 831 830 828 827 826 825 823 822 821 820
823 824 824 825 826 827 829 831 833 835 836 837 839 840 841 842 843 843 844 844 845 845 846 847 847 847 847 847 848 849 849 849 850 851 852 853 854 855 855 855 855 856 856 857 858 858 859 859 859 859 859 859 858 858 858 857 856 855 855 854 852 851 849 847 846 844 842 841 839 838 836 835 833 832 831 830 828 827 826 825 824 822 820 819 818
822 822 823 823 823 824 826 828 829 832 834 835 837 838 839 841 842 842 842 842 842 842 843 844 844 845 845 845 845 846 846 846 847 849 850 852 853 854 854 854 854 855 855 856 857 858 858 858 858 858 858 858 857 857 857 856 855 854 854 853 851 850 849 847 845 844 842 840 838 836 835 833 832 831 830 828 827 826 825 823 822 820 819 818 816
820 820 821 822 822 822 824 825 826 827 829 832 834 836 838 840 841 841 841 840 840 840 841 841 842 843 843 844 844 844 844 844 845 846 848 849 851 852 853 853 854 854 854 855 856 857 858 858 857 857 857 857 856 856 856 855 855 854 853 852 851 850 849 847 845 844 842 840 838 836 833 832 831 829 828 826 825 823 822 821 820 818 817 816 815
817 818 819 820 820 821 822 823 823 824 826 829 832 835 837 838 838 839 839 838 838 838 839 839 840 841 841 842 842 842 842 842 843 844 845 847 848 850 851 852 853 853 854 854 855 856 856 856 857 856 856 856 856 855 855 854 854 853 852 851 850 849 848 846 844 843 841 839 838 836 832 830 830 828 826 825 823 821 820 818 817 816 815 813 813
816 817 817 818 819 819 820 821 821 822 824 827 830 833 835 835 836 837 837 837 837 837 838 838 838 839 839 840 840 840 840 840 841 842 843 845 846 848 850 851 852 852 853 853 854 854 855 855 855 855 855 855 855 854 853 853 853 852 851 850 849 848 846 845 842 840 838 837 837 835 831 828 828 826 824 823 821 819 818 816 814 814 812 811 810
815 816 816 816 817 817 818 819 819 821 823 825 828 831 832 833 834 835 835 836 836 836 836 837 837 837 838 838 839 839 839 839 840 840 842 843 845 847 849 850 851 851 852 852 853 853 854 854 854 853 853 853 853 853 852 852 851 851 850 848 847 846 844 842 840 838 837 836 835 834 830 827 826 825 822 821 819 817 816 814 812 811 810 809 808
813 814 814 815 815 816 816 817 818 820 821 824 827 829 830 831 832 833 834 835 835 835 836 836 836 837 837 838 838 838 838 839 839 840 841 843 845 847 848 849 850 851 851 851 852 852 852 852 852 852 852 851 851 851 850 850 849 849 848 847 845 844 842 840 838 836 835 834 833 832 829 826 825 823 821 819 817 815 813 812 810 809 807 806 806
811 812 813 813 813 814 815 816 817 819 820 822 825 827 828 830 831 832 833 833 834 835 835 835 836 836 837 837 838 838 838 839 839 841 842 844 846 847 848 849 849 850 850 851 851 851 851 851 851 851 850 850 850 849 848 848 847 847 847 845 844 843 841 839 836 834 834 833 832 831 829 825 824 822 819 817 816 813 811 810 808 807 805 805 804
810 811 811 812 812 813 814 815 817 819 820 821 824 826 827 828 829 831 831 832 833 834 835 835 836 837 837 837 838 838 838 839 840 842 844 845 846 847 848 848 849 850 850 850 851 850 850 850 849 849 849 848 848 847 847 846 845 845 845 844 843 842 840 838 835 833 832 831 831 830 828 824 823 821 818 815 813 811 809 808 807 806 805 804 803
810 810 811 811 812 813 814 815 817 819 820 821 823 825 826 827 829 830 831 832 833 834 835 836 836 837 837 837 838 839 839 840 841 843 844 845 846 847 848 848 849 850 850 850 850 850 850 849 849 848 847 847 846 845 845 844 843 843 842 842 841 840 838 836 835 833 830 828 829 829 827 824 822 820 818 814 810 808 807 807 805 805 804 803 801